sat.trackr.live / text

‹ back to catalog

BANDWAGON-2 OBJECT U

NORAD 62395 · 2024-247U

PAYLOAD ACTIVE UNKNOWN

§ Identity

Operator
Country
TBD
Launch date
2024-12-21
Launch site
AFWTR
Launch vehicle
Mass (kg)
RCS (m²)

External: N2YO · Heavens-Above · Gunter

§ Orbital elements

Epoch: 2026-05-25T00:59:33.060768Z

Period
93.12 min
Inclination
44.9964°
Eccentricity
0.0006227
Mean motion
15.46399277 rev/d
Perigee alt
423.0 km
Apogee alt
431.5 km
Semi-major
6,805.4 km
B*
5.6638e-4
RAAN
26.4139°
Arg perigee
152.9669°
Mean anomaly
207.1547°
Rev number
7,981

§ Raw data

BANDWAGON-2 OBJECT U1 62395U 24247U   26145.04135487  .00028404  00000+0  56638-3 0  99922 62395  44.9964  26.4139 0006227 152.9669 207.1547 15.46399277 79817

JSON: /api/v1/satellites/62395 · /tle

For live sub-satellite position, see the globe view (requires WebGL).

§ Visibility from observer

Set your observer location to see the next 7 days of passes ≥ 10°. The values pass through the URL so the page stays shareable.

No JS? Fill the form by hand. The geolocation button needs JavaScript.